Location: General Nathan Twining Observatory
(34.5931°N, 106.8201°W)
Time: 13:12:24
(UTC-06:00)

Daily predictions for brighter satellites

Satellite Brightness Start Highest point End
(mag) Time Altitude Azimuth Time Altitude Azimuth Time Altitude Azimuth
Meteosat 1 Rocket2 4.3 20:33:52 10° WSW 20:38:42 46° S 20:45:56 10° E
Cosmos 1356 Rocket 3.5 20:34:39 10° S 20:38:47 61° E 20:43:01 10° NNE
CZ-4B DEB 3.8 20:40:18 10° S 20:43:29 49° W 20:46:41 10° NNW
BREEZE-M DEB (TANK) 4.3 20:43:13 10° W 20:45:04 15° NW 20:46:29 10° N
GPS 2-05 Rocket1 3.0 20:42:18 10° WSW 20:45:59 62° SSE 20:49:37 10° E
Cosmos 1782 4.0 20:43:20 10° NNE 20:46:46 26° ENE 20:50:11 10° SE
CZ-4 DEB 3.7 20:43:58 10° SE 20:46:48 31° ENE 20:49:38 10° N
ERBS 2.5 20:44:16 10° NNW 20:47:42 60° NE 20:51:06 10° SE
H-2A R/B 2.6 20:45:10 10° SSE 20:48:50 77° ENE 20:52:34 10° N
Abrixas rocket 3.6 20:45:57 10° WNW 20:49:04 33° SW 20:52:09 10° SSE
Coronas F rocket 1.1 20:46:54 10° S 20:49:31 83° E 20:52:10 10° N
Envisat 4.3 20:46:32 10° ESE 20:50:32 24° ENE 20:54:32 10° NNE
SEDSat Delta rocket 4.4 20:48:15 10° SSW 20:51:25 19° SSE 20:54:14 11° ESE
Cosmos 1624 Rocket 4.2 20:48:50 10° SSW 20:54:06 79° WNW 20:59:25 10° NNE
Cosmos 1939 Rocket 4.1 20:53:44 11° SE 20:56:45 24° ENE 20:59:56 10° NNE
Atlas Centaur 2 1.6 20:54:30 10° WSW 20:57:58 41° S 21:00:48 14° ESE
Cosmos 2084 3.3 21:00:06 10° SSW 21:03:52 52° ESE 21:07:37 10° NE
Cosmos 1908 Rocket 4.2 21:01:13 10° SSE 21:05:13 36° E 21:09:16 10° NNE
Cosmos 1733 Rocket 3.1 21:02:45 10° S 21:07:10 85° W 21:11:35 10° N
ERS-1 Rocket 3.2 21:02:52 10° SSE 21:07:45 53° ENE 21:12:39 10° N
IUS-26 SRM-1 3.9 21:09:46 10° SSW 21:10:35 12° S 21:10:36 12° S
ATLAS 5 CENTAUR R/B 2.5 21:04:27 10° NNW 21:10:37 88° WSW 21:16:44 12° SSE
Cosmos 407 Rocket 3.9 21:06:03 10° N 21:11:10 49° ENE 21:15:21 15° SE
Meteor 2-6 Rocket 4.4 21:08:11 10° N 21:14:04 62° E 21:19:44 10° SSE
deb Chang Zheng 4 3.8 21:12:06 10° NNE 21:16:24 50° E 21:20:42 10° S
NOSS 5 (C) 4.3 21:13:19 10° SSW 21:17:01 88° WNW 21:20:11 10° NNE
Cosmos 1452 Rocket 3.5 21:13:03 10° S 21:18:14 64° ESE 21:23:27 10° NNE
YAOGAN 6 4.5 21:18:38 14° E 21:19:16 14° ENE 21:21:13 10° NE
Cosmos 1408 3.3 21:18:18 19° SE 21:20:23 34° E 21:23:42 10° NNE
Cosmos 1825 2.6 21:22:41 18° SSE 21:25:07 41° E 21:28:44 10° NNE
COSMOS 2406 3.5 21:19:45 10° NNW 21:25:27 70° WSW 21:30:54 11° S
YAOGAN 11 4.3 21:21:04 10° S 21:25:34 79° WSW 21:30:09 10° NNW
Cosmos 2154 Rocket 4.0 21:19:32 10° S 21:25:40 64° E 21:31:47 10° NNE
Cosmos 1190 Rocket 3.9 21:20:42 10° NNW 21:25:54 86° ENE 21:30:11 15° SSE
ALOS 3.9 21:22:46 10° SSW 21:26:58 33° W 21:31:11 10° NNW
Nimbus 7 Rocket 4.4 21:22:32 10° NNE 21:28:26 61° ESE 21:34:21 10° S
SJ-11-01 4.3 21:24:58 11° SSE 21:29:30 87° WSW 21:34:16 10° NNW
USA 234 4.3 21:25:05 10° ENE 21:29:46 21° ESE 21:30:49 20° SE
Cosmos 2278 Rocket 2.1 21:24:23 10° S 21:29:59 66° ESE 21:35:37 10° NNE
CZ-4B R/B 4.5 21:26:25 10° NE 21:30:18 23° E 21:31:08 22° ESE
Centaur AC-119 3.6 21:31:42 10° SW 21:32:07 11° SSW 21:32:07 11° SSW
Cosmos 1844 Rocket 3.5 21:27:25 10° SW 21:32:56 54° WNW 21:38:27 10° N
Cosmos 1184 Rocket 3.2 21:32:43 33° SE 21:33:38 41° E 21:36:49 10° NNE
Cosmos 1844 4.0 21:29:12 10° SSW 21:34:55 72° WNW 21:40:44 10° NNE
H-2A R/B 2.1 21:32:35 23° SSE 21:35:08 62° ENE 21:39:20 10° N
CZ-3C R/B 3.6 21:17:03 10° WSW 21:46:56 33° SSW 21:50:58 23° SSE
ISS -1.5 21:44:01 10° WSW 21:46:59 33° NW 21:49:59 10° NNE
Intercosmos 25 3.5 21:52:28 42° E 21:52:28 42° E 21:55:32 10° NNE
CENTAUR R/B 4.1 21:45:11 10° NW 21:52:38 42° WSW 22:00:10 10° S
Terra 3.9 21:52:21 12° ENE 21:52:43 12° ENE 21:54:30 10° NE
Cosmos 2082 Rocket 3.6 21:48:45 10° N 21:53:10 23° ENE 21:54:52 20° E
Cosmos 1862 3.7 21:50:01 11° SSW 21:53:49 64° W 21:57:52 10° N
Cosmos 676 Rocket 4.0 21:51:21 10° NNW 21:56:34 84° WSW 21:59:13 30° SSE
Cosmos 1238 Rocket 2.5 21:53:31 10° N 21:56:54 78° E 21:57:47 51° SSE
SPOT 5 3.0 21:55:02 30° SSE 21:57:42 79° ENE 22:03:04 10° N
Cosmos 1174 2.9 21:55:39 10° NNW 21:58:43 84° W 21:58:43 84° W
COS B Rocket 3.5 21:57:15 10° N 22:01:11 62° W 22:02:44 31° SSW
Cosmos 1954 Rocket 3.9 21:56:01 10° NNW 22:01:15 82° ENE 22:03:20 38° SSE
Okean 2 Rocket 2.9 22:02:42 33° S 22:04:39 86° E 22:09:05 10° N
Cosmos 2297 3.6 22:00:51 18° S 22:05:08 64° ESE 22:10:48 10° NNE
OAO 3 Rocket 3.2 22:02:28 10° WSW 22:07:20 58° SSE 22:08:12 50° ESE
Okean 3 3.4 22:03:36 10° N 22:07:53 86° W 22:09:00 49° S
Cosmos 1606 3.9 22:07:25 10° NNW 22:11:07 40° W 22:12:54 24° SW
NOAA 11 4.4 22:12:15 42° ESE 22:13:34 52° ENE 22:18:54 10° N
Cosmos 1741 Rocket 4.3 22:09:44 10° N 22:14:48 49° ENE 22:15:37 45° E
Cosmos 1782 Rocket 4.3 22:15:08 19° SSW 22:18:04 51° W 22:22:26 10° N
Cosmos 2218 Rocket 4.0 22:18:42 39° SSE 22:21:09 68° E 22:27:31 10° NNE
GPS 2-05 Rocket1 3.4 22:20:38 10° W 22:23:47 60° WNW 22:23:47 60° WNW
Cosmos 1023 Rocket 4.3 22:19:18 10° NNW 22:24:25 89° ENE 22:25:24 60° SSE
COSMOS 2487 3.2 22:22:57 10° NNW 22:26:19 50° W 22:26:19 50° W
Envisat 4.4 22:26:18 18° SSW 22:29:19 33° W 22:33:54 10° NNW
MetOp-B 4.4 22:27:42 39° SSW 22:29:35 64° WSW 22:34:54 10° NNW
SL-08 R/B 4.4 22:29:04 42° S 22:31:26 79° E 22:37:55 10° N
APEX 4.5 22:32:03 24° WSW 22:34:01 44° WNW 22:38:35 10° N
Cosmos 1959 Rocket 4.3 22:34:38 43° S 22:36:49 89° W 22:42:57 10° N
Cosmos 1975 Rocket 3.8 22:32:42 10° NNW 22:36:50 45° W 22:37:35 41° WSW
Cosmos 1727 Rocket 4.0 22:34:05 10° N 22:40:09 57° E 22:40:46 55° ESE
DNEPR-1 R/B 3.6 22:37:56 10° NNW 22:42:52 83° NW 22:42:52 83° NW
Meteor 2-19 Rocket 4.3 22:44:09 62° ESE 22:44:39 65° E 22:50:43 10° NNE
Atlas Centaur 2 3.8 22:43:23 10° WSW 22:43:28 10° WSW 22:43:28 10° WSW
ARGOS 3.1 22:46:45 64° SSW 22:47:27 73° WSW 22:52:49 10° NNW
OAO 1 Rocket 4.3 22:42:55 10° W 22:48:06 85° WSW 22:48:06 85° WSW
Cosmos 614 Rocket 3.8 22:43:24 10° NNW 22:48:29 85° WSW 22:48:29 85° WSW
Cosmos 1536 Rocket 4.2 22:45:20 10° N 22:48:51 51° NNE 22:48:51 51° NNE
Meteor 1-20 Rocket 4.1 22:53:50 71° ENE 22:53:50 71° ENE 22:59:06 10° NNE
CZ-4 R/B 4.1 22:49:00 10° N 22:53:35 59° WNW 22:54:00 56° W
H-2A R/B 2.2 22:53:53 64° ENE 22:53:53 64° ENE 22:58:59 10° N
Cosmos 1140 Rocket 4.3 22:53:50 10° NNW 22:58:38 41° WSW 22:59:10 40° WSW
Meteor 2-8 Rocket 4.3 22:53:11 10° N 22:59:22 83° E 22:59:47 77° SE
Timation 2 Rocket 4.2 22:57:53 10° NNW 23:03:42 55° WSW 23:04:21 52° SW
Cosmos 1339 Rocket 4.3 22:58:19 10° N 23:04:30 76° E 23:04:38 76° E
Meteor 1-25 Rocket 4.3 23:05:46 67° SW 23:06:22 73° W 23:12:13 10° N
USA 234 3.2 23:06:35 10° NE 23:13:08 84° NW 23:17:44 21° SW
Landsat 7 4.5 23:15:00 52° NW 23:15:00 52° NW 23:18:53 10° NNW
Cosmos 1833 Rocket 2.7 23:10:19 10° NNW 23:15:24 74° NNW 23:15:24 74° NNW
Terra 2.9 23:31:14 43° NW 23:31:14 43° NW 23:34:36 10° NNW
Cosmos 2082 Rocket 3.1 23:32:03 10° NW 23:36:43 42° W 23:36:43 42° W
Meteor 1-11 Rocket 4.4 23:54:40 55° NNW 23:54:40 55° NNW 23:59:13 10° N
Lacrosse 5 3.6 23:56:43 27° NNE 23:56:43 27° NNE 23:59:06 10° NNE
